Theta_e
327 328 329 330 331 332 333 335 334 334 334 334 334 333 335 336 337 336 337 333 337 339 341 341 340 341 340 339 339 340 340 341 341 342 342 342 343 342 342 342 342 342 342 342 342 341 342 342 342 341 342 342 340 340 340 340 341 340 339 339 338 337 337 341 341 342 338 335 338 338 339 341 341 341 343 343 343 342 341 340 341 339 340 340 340
327 328 330 331 331 331 331 331 332 332 332 333 332 335 337 336 334 334 336 339 338 337 341 343 341 341 339 338 339 339 339 338 338 341 341 340 341 341 342 342 342 341 341 342 341 341 341 340 341 340 340 340 339 340 339 338 339 339 338 336 338 336 336 338 340 340 333 330 328 329 331 334 338 340 342 342 343 343 342 341 341 341 340 340 340
327 327 329 329 330 330 330 331 331 334 334 333 334 335 334 334 334 334 334 336 340 339 340 340 341 343 342 339 338 337 340 340 339 339 339 338 338 338 338 339 339 338 338 339 338 339 339 338 338 337 336 336 335 334 334 334 334 335 335 335 334 336 335 337 338 339 331 332 332 328 324 323 329 330 339 341 341 339 339 340 340 340 338 338 338
325 326 326 328 329 329 330 330 331 332 334 334 335 334 334 333 336 335 337 339 339 341 339 343 343 343 343 342 342 340 337 337 338 337 337 337 336 336 335 336 336 336 336 336 336 335 336 335 336 335 335 334 333 332 332 332 333 333 333 333 334 330 331 333 336 337 334 331 322 324 325 324 320 323 326 331 334 334 335 337 340 338 337 338 339
326 326 327 327 328 328 329 329 331 331 332 333 334 334 333 335 337 335 338 339 339 340 342 342 341 340 339 340 340 339 339 337 335 333 333 333 332 331 331 333 332 331 331 330 330 330 331 332 332 333 332 332 332 331 330 329 331 331 330 330 331 329 327 329 332 335 334 334 329 324 322 321 320 324 327 327 331 331 333 336 336 336 337 337 336
327 326 327 327 328 328 329 329 329 329 329 331 333 334 333 337 336 335 337 338 339 339 340 340 339 337 336 335 334 333 332 332 329 329 329 329 328 330 329 328 327 327 326 326 326 327 327 328 329 329 329 328 329 329 329 328 328 328 328 328 327 329 327 325 327 331 333 333 334 333 331 325 322 326 324 318 328 330 331 331 333 334 334 334 335
328 328 327 327 327 328 329 328 327 326 328 330 331 333 334 336 335 335 334 335 336 336 338 338 337 336 335 334 334 334 330 329 330 329 328 328 328 327 326 326 325 324 324 325 325 325 326 326 327 327 327 326 326 326 326 326 326 326 326 325 325 326 325 323 324 327 330 332 332 333 332 331 331 326 321 322 319 325 328 329 330 331 334 332 330
325 325 327 328 327 327 326 326 325 326 327 328 331 332 334 334 334 333 332 332 333 334 335 336 333 332 333 332 332 332 330 327 327 327 327 327 326 325 325 324 324 323 323 323 324 324 324 324 325 325 324 324 323 324 323 324 325 325 326 325 325 324 323 321 322 324 322 323 327 327 328 329 330 329 329 323 320 318 320 327 329 331 333 332 331
326 325 326 327 328 327 327 325 325 326 325 326 327 329 331 332 332 332 331 331 331 331 331 331 332 332 331 331 328 329 329 327 327 327 326 326 325 323 322 322 322 322 321 322 322 322 322 322 322 322 322 321 321 321 322 322 322 323 323 322 322 321 321 321 320 320 321 320 321 322 323 324 325 327 327 326 322 318 318 320 322 328 330 330 331
325 325 326 327 327 327 326 325 324 324 325 326 327 328 329 330 330 330 328 328 328 329 329 329 330 330 329 330 328 327 326 325 325 324 324 325 323 321 321 320 320 320 321 320 321 321 321 321 320 320 320 320 320 320 321 320 320 321 322 321 320 318 320 319 318 319 320 320 320 319 318 319 320 321 323 322 323 323 319 319 322 322 321 325 330
324 325 325 324 325 325 325 323 323 322 323 325 326 327 328 327 327 326 326 326 327 326 326 326 327 328 327 326 325 325 325 324 322 322 322 323 321 320 320 319 320 318 319 320 320 320 321 320 319 318 319 319 318 318 319 318 319 320 320 320 319 318 317 317 318 318 318 318 318 318 317 317 316 316 317 318 318 317 317 318 320 321 321 321 325
324 323 321 322 322 323 324 323 322 321 322 324 326 326 326 325 325 324 324 324 325 325 324 325 325 325 325 324 323 323 323 322 321 320 321 321 321 319 319 318 317 318 318 318 319 319 318 318 318 318 317 318 318 318 318 318 318 318 317 317 317 316 316 315 316 314 315 315 315 316 317 317 318 317 317 317 316 316 316 315 316 319 319 320 322
323 321 319 319 319 320 321 322 322 322 323 324 324 325 323 323 323 322 321 323 323 324 323 323 323 324 323 322 321 321 321 320 320 320 320 319 319 318 317 316 316 315 316 316 316 317 316 316 316 316 316 317 317 317 317 317 317 316 315 315 314 314 313 313 313 313 314 313 313 315 315 315 315 317 317 316 316 316 315 312 315 316 314 316 319
323 321 320 320 320 320 321 320 320 321 323 322 323 322 323 322 322 321 320 321 322 322 322 321 322 322 322 321 320 320 319 319 319 318 319 318 318 317 317 315 315 315 315 314 315 315 314 315 315 315 315 316 316 316 317 317 317 315 315 314 314 314 314 314 313 313 313 313 314 312 313 314 315 316 315 314 313 312 311 311 310 312 313 312 315
322 321 321 321 321 321 320 320 321 321 321 321 321 322 322 322 321 320 320 320 321 321 321 320 319 320 320 320 319 318 317 317 317 318 318 317 317 316 315 315 314 314 313 314 315 314 314 313 313 313 313 314 314 315 315 316 316 316 314 315 315 315 315 314 313 314 313 313 313 313 313 314 314 314 313 313 313 312 311 311 310 307 307 310 310
322 322 322 322 322 322 322 322 321 321 321 321 321 322 322 321 321 320 319 319 319 318 318 318 318 318 317 317 317 317 316 316 316 316 316 316 316 315 314 315 315 314 314 313 313 313 313 312 312 312 313 313 313 313 313 314 314 314 312 312 313 315 314 313 313 313 313 313 313 313 313 312 314 313 313 313 313 313 312 311 309 307 304 303 307
321 321 321 322 323 323 322 322 321 321 321 320 320 321 321 320 319 318 318 318 318 317 317 317 317 316 316 316 316 315 315 315 314 315 315 315 315 315 314 314 315 314 313 313 312 312 313 312 311 311 311 312 312 312 312 312 312 312 311 310 311 313 313 312 312 311 312 312 312 312 311 312 312 311 312 312 312 312 312 311 310 308 307 303 301
321 321 321 321 322 321 321 321 321 320 320 319 319 320 320 319 318 318 317 317 317 316 316 315 315 314 314 314 314 314 314 314 314 314 315 314 314 314 314 313 313 313 313 312 313 312 312 312 311 310 311 311 311 311 311 311 310 310 310 309 309 310 310 310 311 310 310 311 311 311 311 310 310 310 309 312 311 311 310 309 309 309 309 305 304
319 318 318 319 320 320 320 320 320 319 319 319 319 319 319 319 319 318 317 317 316 316 315 314 314 314 314 314 314 314 314 314 314 315 315 313 313 313 313 313 313 313 312 312 311 310 311 310 310 310 310 309 310 310 310 310 310 309 309 308 309 309 308 308 310 309 310 310 309 308 309 308 309 309 309 309 310 309 308 308 307 308 308 307 305
318 318 318 318 319 319 319 318 317 317 317 318 318 318 318 318 317 316 316 315 315 314 314 313 313 313 314 314 314 313 313 313 313 313 313 313 312 312 312 312 311 311 311 312 310 309 309 309 309 308 308 309 308 308 309 309 309 308 308 307 308 308 307 307 308 308 309 309 308 307 307 306 307 307 307 307 307 307 308 306 306 306 306 307 306
318 318 318 317 317 318 318 318 318 318 318 318 318 317 317 317 316 315 314 314 313 313 313 312 313 313 313 313 312 312 312 312 313 313 313 312 312 312 311 311 311 310 311 310 310 309 309 309 308 307 307 307 307 307 308 308 308 308 307 307 307 307 306 306 307 307 308 308 307 306 306 306 306 305 305 306 306 306 306 305 305 305 304 305 304
317 318 317 316 316 317 317 317 317 317 316 316 316 316 316 316 315 314 314 313 313 312 313 312 313 312 312 312 312 313 313 313 312 312 311 310 310 310 311 311 310 310 310 309 309 310 309 308 307 306 306 306 306 306 307 308 306 307 307 307 307 306 306 306 306 306 306 306 307 305 305 305 305 304 305 304 304 304 303 302 302 303 302 303 304
317 317 317 316 316 315 315 316 316 315 315 315 314 315 315 315 314 314 313 313 314 313 313 312 311 311 311 312 312 311 311 312 311 310 310 309 310 310 310 310 309 309 310 309 309 309 308 308 307 306 306 305 305 305 306 306 305 306 306 306 307 306 306 306 305 305 304 305 305 305 304 304 304 303 304 303 303 301 301 300 300 301 301 301 302
316 316 316 315 315 314 314 314 314 314 314 313 314 314 314 314 314 313 313 313 313 313 312 312 312 311 311 311 310 310 311 311 311 311 310 310 310 309 309 309 309 309 308 309 309 308 308 307 307 306 305 304 304 304 304 304 304 304 305 306 306 306 306 306 305 304 304 304 304 303 303 303 303 302 302 301 301 300 299 299 300 300 300 300 300
314 314 314 314 313 312 311 313 313 313 313 313 313 313 313 313 313 312 312 313 312 312 311 311 310 310 309 309 310 310 309 309 309 309 309 309 309 309 309 308 309 308 308 309 309 309 307 307 306 305 304 303 302 302 302 302 303 304 305 307 306 305 306 306 305 305 305 304 303 303 302 302 302 301 300 299 299 299 299 299 298 298 298 299 299
313 313 312 311 311 311 311 312 312 312 312 312 313 312 312 312 312 312 311 311 311 311 310 309 309 308 308 308 308 308 308 308 308 308 308 308 308 308 308 308 308 307 308 308 308 308 307 306 305 304 304 303 302 301 300 300 301 303 305 307 307 306 306 305 305 305 304 304 303 302 302 302 301 300 299 298 298 298 298 298 298 298 298 298 298
312 312 311 312 311 311 311 312 312 312 312 312 312 311 311 311 310 311 310 310 310 309 309 308 308 307 306 306 306 307 307 307 307 307 308 307 308 308 307 307 307 307 307 307 307 307 307 307 305 304 303 302 301 300 299 300 301 302 305 306 306 306 305 305 305 304 304 304 303 302 302 301 300 299 298 298 298 298 297 297 298 298 298 297 296
312 311 310 310 311 311 311 311 311 311 311 311 311 311 311 310 309 310 309 309 309 309 309 308 307 306 305 305 306 307 307 307 307 307 307 307 307 307 307 307 308 307 307 307 307 307 307 306 306 304 303 302 300 298 298 299 300 301 303 305 306 305 305 304 305 304 304 303 302 302 302 301 300 299 298 298 298 297 297 297 297 297 297 296 295
310 310 309 309 309 309 309 310 310 310 310 311 312 311 311 310 310 310 309 308 309 308 308 307 306 305 305 306 306 306 306 306 306 306 307 307 307 307 306 306 307 307 308 307 308 307 306 305 305 304 303 301 299 298 298 297 298 299 301 304 305 304 304 303 303 303 303 302 302 302 301 301 301 300 300 299 298 297 297 296 296 296 296 295 295
309 309 309 309 309 310 310 310 310 310 310 310 310 310 309 309 309 309 308 308 308 307 306 305 304 304 305 305 305 306 306 306 305 305 306 306 306 307 306 306 306 307 307 307 307 307 306 305 304 303 303 301 298 298 296 294 294 297 300 303 305 304 304 303 302 302 301 301 301 301 301 301 302 300 299 297 296 296 297 297 296 296 295 295 295
309 309 309 310 310 310 310 311 311 310 311 310 309 309 309 310 309 308 307 307 307 306 305 303 302 303 304 304 304 304 305 304 305 305 305 305 305 306 306 306 306 307 307 307 307 306 305 305 303 302 302 300 298 298 293 292 292 293 297 301 303 303 304 303 302 301 300 300 301 300 301 301 300 299 299 297 295 295 294 294 295 296 296 296 296
310 310 310 310 310 310 310 309 310 310 310 309 308 309 309 309 309 308 307 306 306 305 303 303 303 304 304 303 303 303 303 303 304 303 304 304 305 305 305 305 306 306 306 307 306 305 306 305 304 302 300 299 298 294 291 292 292 291 293 298 304 303 303 302 301 300 300 300 300 300 300 300 300 299 299 297 296 295 294 294 294 294 294 295 295
310 310 309 309 309 309 309 309 310 309 309 310 310 309 309 309 308 308 307 306 305 304 303 303 303 303 303 303 303 302 302 303 303 303 304 304 304 304 304 304 304 305 306 305 305 305 305 305 304 301 299 298 298 293 291 291 292 291 291 295 303 303 302 302 301 300 300 300 300 299 299 299 299 300 299 296 296 296 295 295 296 296 296 295 293
310 310 309 309 309 309 309 310 310 310 311 311 311 310 309 310 309 308 306 305 304 303 303 302 303 302 302 302 302 302 302 302 303 303 303 303 304 303 305 305 305 305 304 304 304 305 305 304 304 302 300 298 297 294 291 291 291 290 291 293 303 303 303 302 301 300 301 300 300 299 298 298 298 299 297 295 295 295 295 297 297 297 297 297 295
309 309 309 309 309 310 310 310 310 310 310 310 309 309 309 308 308 306 305 304 303 302 302 302 302 302 302 302 301 302 302 302 302 303 303 303 303 303 303 304 304 303 303 303 303 303 304 304 304 304 301 299 298 291 291 291 291 291 291 295 303 303 302 302 301 301 301 300 300 299 298 297 297 298 296 295 295 294 295 296 296 296 296 296 297
310 310 309 309 310 310 310 310 311 310 310 310 309 308 307 307 307 305 304 303 303 302 302 302 302 302 302 302 301 301 302 302 302 302 302 302 303 303 303 303 303 303 303 303 303 303 302 303 304 304 302 299 298 291 291 291 291 291 291 302 301 302 301 301 301 301 300 300 300 299 298 297 297 297 296 292 292 294 295 295 295 295 295 296 297
312 312 311 312 312 312 311 311 310 311 310 309 308 307 306 305 304 303 303 302 302 301 301 302 302 302 302 302 302 301 301 301 301 301 302 303 302 302 303 303 303 303 302 302 303 302 302 302 302 303 303 301 299 293 291 291 291 290 294 302 301 300 301 300 300 300 300 300 300 299 298 297 296 296 294 290 291 292 295 295 294 294 295 295 295
313 313 313 313 312 312 311 311 310 310 310 308 307 306 304 303 302 302 301 301 301 301 302 302 302 302 302 302 302 302 301 301 301 301 301 302 303 303 303 303 302 302 301 302 303 303 303 302 301 300 301 302 300 295 291 291 291 291 294 300 300 298 299 300 300 300 300 299 300 297 299 297 296 296 293 290 290 293 295 294 294 293 293 293 294
314 312 311 311 311 311 310 310 310 309 308 308 306 305 302 301 301 301 301 301 301 301 302 302 302 302 302 302 302 302 302 301 301 302 303 302 303 303 303 303 302 302 302 302 302 302 302 303 303 301 300 301 301 298 292 291 291 291 295 299 299 298 297 298 299 298 299 299 299 300 297 295 296 295 291 291 290 293 295 295 294 293 292 292 293
313 312 312 311 311 310 310 309 308 308 308 306 305 303 302 301 301 301 301 301 301 302 302 303 302 303 303 303 303 303 302 302 301 302 303 303 303 303 303 303 302 302 301 301 301 301 301 301 302 303 302 300 300 300 296 291 292 292 292 297 299 297 295 297 299 298 297 299 298 298 298 293 291 291 291 290 290 290 294 296 295 294 293 292 294
312 312 309 311 311 310 309 309 309 308 306 305 303 302 301 301 301 301 301 301 302 303 303 303 303 303 303 303 303 303 303 303 303 303 303 303 303 303 303 302 301 302 302 302 302 302 302 302 302 302 303 303 302 301 299 291 292 292 291 293 298 297 296 296 297 298 297 297 297 297 298 295 291 291 291 290 291 290 291 296 296 294 294 293 292
313 310 310 311 309 309 309 309 309 307 305 304 302 301 301 301 300 301 302 303 303 303 303 303 302 302 303 303 303 304 304 304 303 303 303 302 303 304 304 303 302 302 302 302 302 302 301 301 302 302 302 303 301 299 301 294 292 292 292 291 296 297 296 296 296 298 297 297 298 297 298 295 291 291 290 290 290 291 290 296 297 290 289 289 295
311 310 310 310 309 308 308 309 307 306 305 303 302 301 301 301 301 302 303 303 303 303 302 302 302 302 303 303 304 304 304 304 304 303 302 302 302 303 303 303 303 302 302 301 301 301 301 300 301 301 301 302 302 300 294 297 293 292 291 291 290 294 292 298 296 296 296 296 298 298 297 295 291 290 290 290 290 290 292 295 290 289 290 289 293
311 311 310 310 309 309 308 308 306 305 304 303 302 301 301 301 301 303 303 303 303 303 302 302 302 302 303 303 303 304 304 305 304 304 303 303 302 303 302 303 302 301 300 300 300 301 300 299 299 299 301 300 300 300 295 292 296 292 291 290 290 290 290 296 297 297 297 297 298 298 297 292 290 290 290 290 290 291 295 290 290 289 290 292 295
309 310 310 309 310 309 308 306 305 305 304 303 303 301 301 301 303 303 303 302 303 302 303 302 302 302 302 302 303 303 303 304 304 304 302 302 303 303 301 302 302 301 300 299 299 300 299 299 299 299 300 300 300 299 299 296 292 292 291 291 290 290 290 290 297 298 298 298 294 291 290 290 290 290 291 291 293 293 291 290 291 291 294 295 295
310 310 308 307 308 308 306 305 304 304 303 303 303 302 301 302 303 303 303 303 303 303 302 301 301 301 301 301 302 302 302 303 304 304 303 303 303 302 302 302 301 301 300 300 298 298 298 299 298 299 299 299 300 299 298 298 296 295 293 292 291 291 292 292 294 296 292 291 291 292 291 292 293 294 297 297 296 296 291 291 291 294 296 294 294
308 308 307 307 307 306 305 304 303 304 303 303 303 302 303 303 303 303 303 303 303 302 301 301 300 301 301 301 301 301 301 303 304 303 303 302 302 301 302 301 301 301 301 299 299 299 298 298 298 298 298 299 299 298 296 296 296 296 295 296 296 296 294 293 297 297 295 297 296 297 295 292 293 291 292 292 293 294 295 295 296 295 295 295 295
310 308 307 307 306 305 304 304 303 303 302 302 302 301 303 303 303 303 303 303 301 301 300 300 300 300 300 301 301 295 298 301 302 303 301 301 302 303 302 301 301 301 301 300 300 298 297 299 299 298 297 298 297 297 296 295 295 294 294 295 295 295 296 296 296 296 296 296 297 294 294 297 297 297 296 296 296 296 295 294 295 295 295 295 295
307 307 306 306 306 305 304 303 302 303 302 301 301 301 303 303 303 303 303 301 300 300 301 301 300 300 300 301 302 301 301 301 302 302 302 302 301 303 302 301 302 301 299 300 302 299 299 300 300 298 295 297 296 295 296 292 295 290 291 294 294 294 294 295 294 291 294 295 297 296 295 295 295 292 293 294 294 295 294 294 295 294 295 294 294
307 306 306 306 306 305 304 303 302 302 302 301 301 302 303 302 302 302 301 301 301 300 301 300 300 300 301 301 302 299 302 302 301 301 302 302 291 291 297 302 298 289 282 284 290 298 300 299 300 300 299 296 295 296 290 288 289 289 289 288 289 289 288 291 290 288 291 293 295 293 294 293 293 293 292 292 292 293 293 293 293 292 294 293 293
306 305 305 305 305 305 304 302 302 302 301 301 301 302 302 301 301 302 302 302 301 300 300 300 301 301 300 302 301 299 302 303 302 301 301 298 298 298 288 290 294 293 293 288 284 282 281 286 296 298 297 291 293 292 289 290 289 289 289 288 288 289 288 288 288 289 292 292 293 292 292 293 293 294 292 292 292 292 292 291 292 293 294 292 291
Wind_Speed
12 14 13 13 13 9 9 8 6 7 5 7 6 3 4 2 3 3 1 0 4 4 6 1 5 5 5 6 6 5 5 6 7 7 6 7 7 6 6 6 6 6 6 6 7 6 6 6 6 7 7 6 6 6 7 7 7 7 7 6 7 7 6 5 6 7 8 8 7 8 8 9 10 9 9 8 7 7 7 7 6 7 7 7 7
12 13 14 15 13 13 11 10 8 8 6 6 7 6 5 6 4 3 2 1 4 4 3 3 4 4 4 5 5 5 6 5 6 6 6 6 7 7 7 7 7 7 7 7 7 8 7 7 7 8 9 8 8 9 10 10 10 9 8 8 7 7 7 6 6 7 6 7 9 8 8 7 6 6 7 7 7 7 7 7 7 7 7 7 7
13 13 13 14 15 13 12 10 8 7 7 7 6 6 5 4 3 0 2 4 2 2 2 4 5 6 5 6 5 6 7 7 7 6 6 6 6 7 7 7 7 7 8 8 7 8 8 8 7 7 8 8 8 8 8 8 8 9 10 9 9 8 7 6 6 6 8 8 9 9 7 8 6 5 4 4 6 8 7 8 8 8 10 9 8
15 15 15 14 14 13 11 10 9 8 7 6 4 5 4 3 3 4 5 7 6 4 5 7 8 9 8 8 8 7 6 7 7 6 6 6 7 8 7 7 7 7 8 8 7 8 8 7 6 6 7 7 7 6 8 8 8 9 9 9 9 9 9 9 9 9 8 9 8 7 9 8 9 4 7 5 7 10 8 8 6 8 9 9 8
15 15 15 15 15 14 13 12 10 9 7 5 4 5 4 5 5 5 2 4 6 5 6 6 7 7 7 7 6 7 7 6 6 5 6 6 7 7 7 7 8 8 9 10 8 8 8 8 7 6 6 7 6 7 7 7 8 8 9 9 9 9 10 9 10 9 10 7 8 8 6 5 7 9 10 10 7 6 7 7 9 9 8 8 8
14 16 15 15 15 15 14 15 14 10 6 5 3 4 6 4 6 6 3 6 6 6 5 5 5 5 5 4 5 5 6 6 6 5 5 6 6 6 8 8 9 9 9 9 9 8 8 8 7 7 6 6 7 6 6 7 8 8 8 8 9 10 9 9 9 9 9 10 8 6 6 7 10 11 11 9 8 9 9 9 9 9 8 9 9
13 14 15 15 15 15 15 14 13 11 8 6 1 3 6 5 6 7 6 5 7 7 6 5 6 4 3 3 5 5 6 6 6 5 5 5 6 6 6 7 8 8 8 7 7 7 7 7 7 7 6 6 6 5 5 7 7 7 7 8 8 7 9 8 9 9 9 8 8 10 10 9 9 9 9 11 11 8 9 9 9 10 8 9 10
13 14 14 15 16 15 15 15 13 11 9 6 5 6 7 7 7 8 8 7 6 5 6 6 5 5 5 5 6 7 7 7 6 5 5 5 6 6 5 6 7 7 6 6 6 6 5 6 6 6 6 6 5 6 6 6 7 7 7 8 7 7 8 7 9 8 9 9 11 11 12 12 12 11 11 11 12 13 12 9 9 9 8 8 10
14 13 15 15 16 16 16 15 13 12 8 6 7 7 7 7 8 10 9 7 6 7 6 6 5 5 4 4 5 5 5 5 4 4 5 4 7 7 6 6 6 7 7 6 6 6 6 6 6 6 6 6 6 6 6 6 7 6 7 7 8 8 7 8 8 8 8 8 9 9 10 10 12 12 12 11 10 12 13 12 11 10 10 10 9
13 14 14 14 14 14 14 15 14 10 8 7 7 6 6 8 9 9 8 7 7 7 7 7 7 5 5 5 5 5 4 4 4 4 4 5 7 6 5 5 5 6 6 7 6 6 6 6 6 7 7 7 6 6 7 7 6 6 7 7 7 8 7 7 7 7 8 8 8 9 8 9 9 10 11 12 12 11 11 13 13 14 13 10 9
13 14 13 13 12 14 14 14 12 10 8 7 7 8 8 8 9 9 8 7 7 7 7 7 6 6 5 6 5 6 5 4 4 4 3 4 6 5 5 6 5 5 5 6 6 7 7 7 7 7 7 7 7 7 7 6 6 7 7 7 8 8 7 8 7 8 8 8 9 7 8 8 9 9 10 10 11 12 13 13 14 13 14 14 11
15 14 14 14 14 13 13 13 12 12 10 8 9 9 8 9 9 9 8 8 7 6 6 6 5 6 6 5 5 4 3 3 4 3 4 6 5 5 5 5 5 5 5 6 7 7 7 7 7 7 7 7 7 6 6 6 6 7 7 7 6 7 7 7 7 8 9 7 8 8 8 9 9 9 10 10 10 11 11 12 12 13 13 12 13
15 14 14 13 13 14 14 14 12 12 11 10 10 9 9 9 9 9 8 7 7 6 7 6 6 6 6 6 6 5 5 5 5 6 6 5 5 5 5 5 5 5 6 6 7 7 7 7 7 7 7 7 7 6 6 7 6 5 6 6 6 6 7 7 6 7 7 8 7 7 7 8 8 8 9 9 10 10 11 12 12 13 13 13 13
14 14 13 13 14 14 14 13 11 10 11 10 10 9 9 8 9 8 8 7 6 7 6 7 7 6 6 6 6 6 6 6 5 6 6 5 5 6 5 5 5 5 6 6 6 7 7 7 7 7 8 7 7 6 6 7 6 5 6 6 5 4 5 6 6 7 7 8 7 7 7 7 7 8 9 9 9 9 10 11 12 11 12 12 12
14 13 13 14 14 14 12 12 11 11 11 10 9 9 9 9 8 9 8 7 7 7 7 7 7 6 6 6 6 6 6 6 6 6 6 7 6 6 5 5 5 6 6 6 6 7 7 7 8 8 7 7 7 7 6 6 6 5 6 6 5 5 6 7 5 6 6 7 8 7 7 6 6 7 7 8 8 8 8 9 10 12 13 11 12
13 14 14 15 14 13 12 12 12 11 12 10 10 9 9 9 9 8 8 7 7 7 7 7 7 7 8 7 7 7 6 7 6 6 6 7 7 6 6 5 6 6 6 6 7 7 7 7 7 8 7 7 7 8 7 6 6 6 6 7 7 5 6 7 7 7 8 9 8 9 7 7 7 8 8 8 8 8 8 8 9 10 11 13 11
13 13 13 15 14 13 12 13 12 12 11 10 10 9 9 9 9 9 8 8 8 8 7 7 8 8 8 8 8 8 8 8 7 8 8 7 7 6 6 6 6 6 5 5 6 6 6 6 6 7 7 7 7 8 8 7 7 6 6 7 7 7 6 6 7 7 8 8 8 9 8 7 8 8 8 8 9 8 8 8 9 10 10 11 12
15 14 13 14 14 14 13 12 13 12 12 12 11 10 9 8 9 9 9 9 8 8 8 8 8 8 8 8 8 8 8 8 7 8 7 7 7 6 6 6 6 5 5 5 5 6 5 6 6 7 7 7 8 7 8 8 7 7 7 7 8 8 7 7 7 8 8 8 8 8 8 7 8 8 8 9 9 9 9 9 9 10 10 11 11
15 15 14 14 14 13 14 14 13 13 12 12 11 10 9 8 8 8 9 8 8 7 8 7 7 7 7 8 8 8 7 7 8 8 8 7 7 7 6 6 5 5 5 5 5 5 5 5 6 6 7 8 8 8 8 7 8 7 8 7 8 8 7 8 7 7 7 8 9 9 9 9 9 9 9 9 9 9 10 10 10 10 10 11 12
16 15 14 14 13 14 14 14 14 14 13 12 11 10 10 9 9 9 9 9 9 9 9 8 8 7 8 8 8 8 8 8 8 8 7 7 7 7 7 6 5 5 5 5 5 5 6 6 6 7 7 7 8 8 8 8 7 8 8 7 8 9 9 8 8 8 7 8 9 9 9 9 9 9 9 10 10 10 10 11 11 11 11 11 11
16 16 15 15 15 15 15 14 14 13 12 11 10 11 9 9 10 10 10 10 10 9 9 9 9 9 9 9 9 9 9 8 8 8 8 7 7 7 6 6 5 5 5 5 5 6 6 6 7 8 8 8 8 8 8 8 8 8 8 8 9 9 9 8 8 9 8 8 9 9 9 10 10 10 10 10 10 11 11 11 11 11 11 11 12
17 16 16 14 15 15 15 14 13 12 12 12 11 10 9 9 9 9 9 9 9 9 9 9 9 9 9 9 8 8 8 7 8 8 8 7 7 6 6 6 6 5 5 5 5 4 5 7 7 8 9 9 9 9 9 8 8 8 8 6 8 9 9 9 8 9 9 8 9 10 10 10 10 11 11 11 11 12 12 12 12 12 12 12 12
16 16 16 16 15 15 15 15 14 13 12 11 10 9 9 9 9 8 8 9 9 9 9 9 9 9 9 8 8 8 8 8 8 7 8 7 6 6 5 5 5 5 5 5 5 6 6 7 7 8 9 9 10 9 9 9 8 9 8 8 8 8 8 8 9 9 10 9 9 9 10 10 9 12 12 11 11 12 12 12 13 12 13 13 13
14 15 15 16 16 15 15 15 14 13 12 11 9 8 9 8 7 9 10 11 10 10 10 9 9 9 9 9 8 8 8 8 8 7 7 7 6 6 6 5 5 5 5 5 6 6 6 7 8 9 10 10 10 10 10 9 10 9 8 8 8 8 8 8 9 9 9 9 10 9 10 11 12 12 11 10 11 11 12 12 13 12 13 14 13
17 17 18 18 17 17 15 14 13 13 12 10 10 10 9 9 9 10 11 10 10 9 10 10 10 10 9 9 9 8 8 8 8 7 7 7 6 6 5 6 5 5 5 5 5 5 7 7 8 9 10 10 10 11 11 11 10 9 9 8 8 8 8 8 8 8 9 9 10 10 11 12 12 12 12 12 13 15 13 13 14 14 14 13 12
18 18 19 19 17 15 15 13 12 12 12 11 11 11 10 10 11 10 10 10 10 10 10 10 10 10 9 10 9 9 9 9 8 8 7 6 6 6 5 5 5 6 6 6 6 6 6 8 9 9 9 10 10 11 12 12 11 10 9 8 8 8 8 8 9 9 9 9 10 11 11 12 12 12 12 13 14 16 15 15 16 15 15 14 14
18 17 17 17 16 16 16 15 13 13 12 11 11 12 11 11 12 11 10 10 10 10 10 10 10 10 9 9 9 8 8 8 7 7 6 6 6 6 6 6 6 6 6 6 6 7 7 8 8 9 10 10 11 12 12 12 11 11 10 8 8 8 8 7 8 9 9 10 11 11 11 11 12 12 14 15 15 16 14 17 17 16 15 15 15
16 17 19 18 17 17 17 16 15 14 12 11 11 12 12 12 12 11 11 10 9 10 10 10 10 10 10 9 8 8 8 8 7 7 7 7 6 6 6 6 6 6 6 6 6 6 7 7 7 8 9 10 11 12 13 13 12 11 10 9 8 8 8 8 8 9 9 10 10 11 11 12 12 13 14 14 15 13 15 17 16 16 16 15 15
19 19 18 18 16 16 16 16 15 15 14 12 12 13 12 12 11 11 11 11 11 11 11 11 10 10 9 9 8 8 7 8 8 8 7 7 7 6 6 6 5 6 5 6 6 7 7 8 8 8 10 10 10 11 11 10 11 12 11 8 8 8 8 8 9 9 9 10 10 10 11 12 12 10 10 8 9 12 14 16 17 16 16 15 15
20 20 19 18 17 18 17 16 16 16 15 14 13 13 14 13 12 11 12 11 11 11 11 11 10 10 9 9 9 8 8 8 8 8 7 7 7 6 6 6 6 6 6 6 6 6 7 8 9 9 9 9 10 10 12 18 14 9 10 8 7 8 8 8 9 8 9 10 11 11 11 15 9 10 13 10 14 16 16 15 16 16 16 16 16
19 20 19 18 18 18 18 18 17 16 15 14 14 14 13 13 12 12 12 11 11 11 11 11 11 10 10 9 9 9 8 8 8 8 7 8 7 6 6 7 7 6 6 6 6 7 7 7 9 10 9 9 10 9 15 16 18 17 10 10 7 7 7 7 8 8 9 10 11 11 11 13 14 15 16 16 16 17 17 16 17 18 17 15 15
21 20 20 20 19 19 18 17 16 16 15 14 14 14 14 13 13 12 12 12 12 11 11 11 11 10 10 10 9 9 9 9 8 8 8 8 7 7 7 7 6 7 6 6 6 6 6 7 8 9 10 9 9 12 15 15 16 18 15 11 7 7 7 7 8 8 8 10 10 11 11 11 12 16 16 15 17 18 18 18 18 17 16 14 12
22 21 20 19 19 19 18 16 15 15 15 15 14 14 14 13 13 12 11 12 12 12 12 12 11 11 10 9 10 10 9 9 9 8 8 8 8 8 7 7 7 7 7 7 7 6 6 6 7 9 10 10 10 12 14 16 16 17 18 13 7 7 7 7 8 9 9 10 10 10 12 12 12 17 15 16 17 18 18 19 17 18 18 19 18
21 21 21 20 18 16 16 16 16 16 15 15 14 13 13 13 13 13 13 12 13 12 12 11 11 11 10 10 10 10 9 9 9 8 8 8 8 7 6 6 6 6 7 7 7 7 6 6 6 8 8 9 10 11 13 16 16 19 18 16 5 6 7 8 9 9 8 9 10 11 12 13 14 14 13 17 17 17 17 17 17 17 18 20 20
22 21 20 20 19 19 18 18 16 16 15 15 14 13 13 13 13 13 13 13 13 13 12 11 11 11 10 10 11 10 10 9 9 8 8 8 7 7 7 6 6 6 6 6 6 7 6 6 5 6 7 8 8 12 13 16 16 18 20 16 6 6 7 7 8 9 9 10 10 10 12 12 12 13 12 16 16 17 18 16 17 18 18 18 18
21 22 21 19 19 19 19 17 15 15 15 14 14 14 14 14 13 13 13 13 13 13 12 11 11 11 11 10 10 10 9 9 9 9 8 8 7 7 6 6 6 6 6 6 6 6 7 6 5 5 6 8 8 12 13 15 16 18 20 9 9 7 8 7 8 9 9 9 9 9 10 11 12 12 16 20 17 15 17 17 18 18 19 17 16
20 21 20 20 20 20 17 15 16 16 16 15 15 14 14 14 14 13 13 13 13 13 12 12 11 11 11 11 10 10 9 9 9 9 8 7 7 6 6 5 6 5 6 6 6 6 6 7 7 5 5 6 8 10 12 14 15 18 15 10 9 8 8 8 8 9 8 9 7 8 9 11 12 14 18 20 20 16 15 17 18 19 18 18 18
21 20 20 20 19 18 17 16 18 17 16 15 15 15 15 15 14 14 14 14 13 13 12 12 12 11 11 10 10 10 9 9 8 8 8 7 6 6 5 4 5 5 5 5 5 5 5 6 7 7 6 5 7 10 11 11 14 16 16 11 8 9 9 10 8 9 9 10 8 13 13 12 15 16 19 19 20 16 14 16 18 18 19 20 19
21 22 21 19 17 19 19 18 18 18 17 16 16 16 15 15 15 14 14 14 13 13 13 12 12 11 11 10 10 9 9 8 9 8 7 7 6 5 5 5 5 5 5 5 5 5 5 4 5 6 6 6 6 8 10 9 11 12 12 11 9 9 9 9 10 9 9 9 10 5 12 15 15 16 20 20 20 16 13 13 16 16 16 17 17
21 20 19 19 20 20 19 19 19 18 17 18 17 15 16 15 15 14 14 14 13 13 13 12 12 11 10 9 9 9 9 8 8 7 6 6 5 5 4 4 4 4 4 4 4 5 5 4 4 4 4 6 7 6 7 8 10 11 11 10 9 9 10 10 10 11 8 10 9 10 10 15 17 17 19 21 19 18 12 12 16 14 12 13 13
21 20 20 20 20 19 19 20 18 18 17 17 16 16 16 15 15 14 15 14 13 13 13 12 11 11 11 10 9 8 8 8 7 7 6 6 5 5 5 5 5 4 4 3 3 3 3 3 3 3 3 2 3 5 6 7 8 9 10 9 9 9 10 10 10 11 10 10 11 11 12 14 16 16 17 20 20 18 15 11 14 11 10 12 15
20 19 19 19 18 19 19 19 18 18 17 16 16 16 16 16 15 15 15 14 14 13 12 12 12 12 11 10 9 9 8 7 7 6 6 6 5 4 4 4 4 4 4 3 2 3 3 2 2 3 4 3 5 4 6 7 4 8 9 8 7 9 9 11 10 10 11 10 11 11 12 13 16 17 17 18 20 17 17 10 12 13 16 16 13
22 21 22 20 20 20 19 19 18 18 17 16 17 17 16 15 15 16 14 14 14 13 13 13 12 12 11 10 9 9 7 6 6 6 6 6 5 5 4 4 4 4 4 4 3 2 2 3 2 3 3 4 5 5 6 9 5 7 9 9 8 7 9 9 10 11 11 10 10 12 13 13 16 17 17 17 18 17 12 13 15 16 16 16 15
20 23 23 22 20 19 19 19 18 17 16 16 17 17 16 16 17 15 14 14 14 13 13 13 12 11 11 10 9 8 7 6 7 6 6 5 4 4 3 3 2 2 3 2 2 2 2 3 3 3 3 4 5 4 6 9 8 7 10 9 9 9 8 7 10 10 10 10 11 13 13 16 17 18 17 16 14 12 10 16 14 16 18 15 16
22 23 21 18 20 21 19 20 17 19 16 17 16 17 18 17 16 15 15 14 14 13 12 12 12 11 10 10 9 8 8 7 6 6 6 5 4 4 4 3 3 2 2 2 2 2 2 3 3 3 3 3 4 5 6 6 5 8 10 10 12 8 6 10 9 9 9 10 12 16 17 16 15 15 16 14 16 16 13 13 16 18 18 14 16
23 23 22 20 21 21 22 21 19 18 17 16 16 16 18 16 16 15 15 14 14 13 12 12 11 11 10 10 9 9 8 8 7 6 5 5 4 3 3 2 2 2 2 2 2 2 2 3 3 3 3 3 4 5 6 7 8 10 10 12 12 11 11 13 12 6 11 13 13 16 15 12 14 13 11 14 12 14 11 14 15 17 15 15 15
25 23 21 20 21 20 21 21 20 18 16 16 16 16 15 15 15 15 14 14 13 13 12 11 11 10 10 9 9 8 7 7 6 6 5 5 4 3 2 2 3 2 2 1 2 2 2 3 2 4 3 3 4 5 6 7 8 8 9 10 11 11 12 11 9 8 11 11 15 13 8 10 8 13 13 13 14 15 14 14 14 15 15 15 16
24 22 21 21 21 21 21 21 19 17 16 16 16 16 16 16 15 15 14 13 12 11 11 11 11 10 8 8 8 8 8 7 6 6 5 4 3 2 2 2 3 2 1 2 1 2 3 3 3 4 4 4 5 5 6 7 7 8 8 9 9 10 10 10 10 10 12 14 15 11 10 10 12 11 12 11 12 14 15 14 13 14 14 14 15
24 21 20 21 21 22 22 21 19 17 17 16 16 15 16 17 15 14 14 13 12 11 10 11 10 9 8 9 7 9 8 7 6 6 5 3 2 2 4 5 5 5 5 5 4 3 3 3 3 3 4 4 5 5 6 4 5 5 6 7 9 9 10 11 13 16 12 13 11 9 11 11 11 10 13 12 13 13 14 15 15 15 14 14 15
21 18 20 21 21 22 22 21 18 17 17 17 17 16 16 16 15 14 14 13 13 11 11 10 9 9 9 8 8 8 7 6 7 6 5 6 8 10 8 4 6 5 7 5 5 5 4 4 4 3 4 5 4 5 4 3 6 8 9 9 10 12 14 12 16 19 12 10 9 8 9 9 11 11 11 11 13 13 12 14 14 14 14 14 14
22 21 21 21 21 22 21 20 18 17 17 17 17 16 16 15 14 14 14 13 13 9 8 9 9 9 9 8 8 8 7 6 7 6 6 6 5 5 8 10 10 8 7 3 2 3 1 2 3 4 3 7 3 3 4 5 6 8 10 11 12 13 16 17 18 10 10 10 7 8 8 8 9 11 10 10 11 11 11 9 10 13 15 13 12
Wind_Direction
128 120 116 122 121 114 115 125 122 111 124 144 109 117 143 153 177 161 67 353 250 299 298 63 106 106 107 103 95 94 90 90 79 67 63 56 49 53 55 49 45 39 32 31 26 15 13 10 5 13 357 2 352 358 353 346 343 337 325 317 316 312 309 325 317 312 307 296 295 292 285 272 260 250 247 257 256 269 273 275 275 281 283 279 280
120 116 124 125 114 104 103 106 121 137 135 126 132 161 159 146 149 116 2 104 236 226 287 349 76 92 102 87 85 78 79 77 80 70 62 61 49 45 39 34 31 32 26 25 19 15 11 11 13 15 15 10 10 15 12 10 6 359 351 332 329 323 315 320 326 317 302 315 317 313 300 286 274 253 241 244 257 263 267 268 264 271 270 276 275
125 126 126 122 115 106 101 95 83 104 132 119 156 161 161 157 130 41 114 273 39 241 144 82 65 68 82 79 76 78 60 62 75 79 79 75 65 54 48 40 35 33 27 24 24 21 11 9 12 12 20 8 8 11 6 7 4 0 358 350 339 330 318 322 334 331 318 320 307 292 307 320 302 281 206 280 276 273 276 276 275 274 278 280 288
136 135 132 127 118 112 105 102 106 95 89 121 139 136 135 129 131 81 220 171 189 92 108 94 83 79 77 77 78 78 91 92 93 97 93 79 65 51 45 39 41 43 37 34 33 29 23 16 9 15 15 15 11 4 359 0 359 354 353 344 343 332 335 329 334 328 327 327 317 328 312 302 299 321 339 281 278 282 271 277 281 279 283 292 292
138 132 131 129 126 124 122 116 108 98 85 82 76 78 39 61 102 165 139 60 76 70 83 101 103 93 89 90 94 108 116 112 104 93 75 69 65 55 53 47 44 46 41 39 37 29 23 18 7 9 8 2 358 357 354 352 348 347 348 342 339 334 322 324 317 320 322 324 312 316 314 299 320 323 328 304 295 303 289 271 261 263 270 279 280
140 134 132 133 130 127 125 120 113 104 84 76 55 123 132 145 124 120 95 58 69 72 69 64 58 68 85 112 131 132 107 79 71 76 76 68 70 67 49 45 49 43 43 40 34 32 28 20 12 360 5 1 354 343 341 341 342 344 344 339 333 333 327 315 311 317 322 319 311 314 306 304 311 316 312 305 314 295 297 296 300 297 283 276 278
138 136 136 133 129 127 125 125 118 110 99 86 175 139 118 129 106 84 73 71 54 47 40 49 59 65 72 75 77 106 98 84 79 66 61 66 75 67 53 45 46 47 40 34 33 27 23 15 7 355 350 352 340 335 354 355 351 350 352 347 343 340 340 322 323 326 327 319 334 332 321 307 301 305 307 311 305 306 302 303 298 292 286 284 282
141 142 142 138 133 131 126 120 116 110 109 133 133 139 124 119 118 98 76 70 60 53 57 50 61 57 58 58 59 65 74 83 79 71 69 66 71 73 63 57 46 40 38 28 29 23 16 14 9 13 360 6 348 9 6 4 355 355 353 353 352 349 341 333 328 331 340 326 334 333 331 324 315 304 298 296 301 303 301 298 291 295 308 303 297
138 141 144 142 138 133 128 122 119 122 127 130 128 117 120 112 109 81 79 81 75 65 63 71 66 70 68 75 84 77 86 93 89 85 86 76 80 77 61 53 55 46 38 34 30 32 26 26 25 24 10 7 355 14 6 4 6 2 1 3 358 357 354 351 340 338 332 332 332 332 325 321 321 315 312 316 313 307 303 306 310 309 300 291 287
139 137 135 136 132 130 126 126 129 125 114 120 123 128 118 115 99 97 92 84 80 76 66 63 65 64 65 71 85 99 107 90 80 85 83 84 81 77 70 58 51 49 50 38 32 38 35 28 29 25 16 9 5 13 12 9 6 0 26 8 8 2 357 355 344 338 343 340 341 333 332 334 330 329 329 336 332 327 316 316 313 314 308 309 309
139 136 131 131 133 132 133 131 119 108 114 130 131 118 109 98 101 92 90 90 83 78 74 67 63 55 68 66 69 88 98 96 95 86 88 104 94 83 67 58 53 55 48 48 38 34 36 30 16 17 25 14 11 11 16 10 355 14 21 13 17 11 9 356 350 359 348 345 345 340 332 333 332 324 327 332 328 322 322 319 319 316 318 316 315
147 138 135 137 135 136 135 129 123 123 130 127 129 120 116 111 103 98 93 86 80 76 75 76 75 75 75 75 79 62 71 98 100 110 91 92 92 90 81 72 63 59 51 48 41 29 29 25 23 20 25 18 16 16 18 9 7 23 25 17 19 15 14 0 1 2 353 351 349 344 341 340 333 334 338 332 327 323 320 314 311 319 316 312 314
150 142 142 143 142 144 141 136 133 135 132 133 129 123 115 109 104 97 86 84 77 74 72 69 70 71 77 79 78 79 82 89 96 87 79 89 89 89 87 77 68 59 46 46 42 33 29 29 26 25 21 23 21 19 20 22 9 38 24 24 23 18 15 6 9 358 0 356 348 345 346 338 335 339 334 334 333 333 324 318 319 324 314 315 315
155 149 148 150 149 149 141 133 130 132 134 132 128 124 119 113 105 101 95 84 84 78 77 74 67 67 76 83 86 85 88 81 76 88 85 91 88 74 77 74 70 61 58 47 34 33 39 36 32 31 25 24 22 17 21 25 15 22 34 21 24 20 11 9 10 3 1 0 355 347 348 338 339 345 344 334 336 331 329 326 323 317 316 312 310
162 155 156 153 151 145 139 136 137 136 135 132 131 127 123 119 116 111 103 96 90 90 79 77 77 71 72 80 86 96 97 83 66 79 88 88 86 86 86 79 73 65 54 49 40 42 41 43 38 30 31 26 27 25 19 30 16 21 32 14 22 6 14 9 8 358 1 357 356 351 342 349 347 347 338 335 334 333 327 326 327 324 320 316 313
171 164 157 153 149 146 142 139 141 139 138 136 134 132 127 121 115 108 104 98 93 90 88 87 87 84 82 85 90 91 97 101 100 85 82 78 88 93 87 78 70 68 60 53 49 43 37 42 40 40 32 31 29 29 28 26 23 24 27 24 17 8 10 14 5 1 6 354 1 350 345 350 357 356 345 343 336 333 326 326 327 321 319 317 318
173 169 159 154 154 149 147 145 143 142 141 140 137 131 125 120 119 116 114 116 111 103 101 94 87 88 90 87 86 87 83 88 95 94 90 90 90 90 89 77 70 68 67 59 56 51 45 40 45 40 39 34 32 33 32 28 28 26 26 25 17 5 4 15 7 8 5 356 5 352 353 350 6 352 347 342 336 334 333 330 325 320 321 313 315
168 165 156 156 157 152 149 146 144 143 140 139 131 128 127 123 122 126 125 119 112 106 99 99 97 93 89 88 88 90 95 97 99 98 97 103 101 90 82 80 73 72 71 65 61 59 52 47 46 45 42 37 34 30 30 28 28 28 23 26 15 6 12 14 16 7 7 359 0 354 357 358 5 350 349 345 336 337 337 335 327 325 320 315 313
163 159 158 159 158 156 148 145 141 134 131 134 134 133 129 125 123 119 115 110 110 110 107 103 104 102 100 101 102 99 99 105 106 104 102 94 86 82 82 79 77 73 70 67 64 60 58 51 47 47 40 41 35 32 27 29 24 27 19 20 14 10 12 14 15 8 10 5 2 360 6 3 1 352 349 348 341 343 342 333 330 324 320 316 314
157 157 159 160 155 149 147 144 141 140 141 142 140 133 130 127 118 112 111 111 110 109 108 106 103 104 107 103 98 100 98 92 91 93 95 96 94 95 87 80 78 80 71 63 63 62 58 55 49 45 46 40 38 30 28 26 25 25 21 12 11 9 10 15 9 13 12 6 4 2 10 5 0 351 353 348 346 347 342 338 333 329 324 323 319
158 158 157 155 152 151 147 143 143 143 142 144 139 137 134 125 118 121 121 119 115 115 113 111 112 110 109 105 101 96 98 97 95 91 87 82 79 79 80 82 80 77 79 71 63 61 55 50 53 47 38 39 34 30 25 21 21 20 20 12 10 9 10 15 6 10 12 6 6 0 7 7 2 354 356 347 350 347 345 338 334 330 326 326 323
157 158 154 150 150 150 146 144 143 141 143 143 142 138 136 131 127 127 125 120 122 120 121 116 109 110 103 100 100 97 92 94 94 92 92 90 88 84 87 83 76 66 69 71 70 63 64 60 51 45 43 36 30 29 19 19 14 12 13 13 9 8 9 12 5 11 9 9 4 1 5 5 4 359 357 353 352 351 345 339 337 333 329 326 325
155 155 152 150 147 147 147 146 145 146 145 144 145 144 138 128 132 132 128 124 124 122 117 114 115 111 110 107 105 100 98 96 94 90 86 88 84 85 84 87 85 82 69 69 67 63 56 57 56 49 43 35 30 23 19 12 13 5 5 11 9 8 8 8 7 13 9 8 5 5 5 4 4 359 3 359 355 349 341 337 334 330 326 323 320
153 151 152 151 150 149 147 147 148 149 147 148 148 140 133 133 133 132 129 126 127 123 118 118 115 109 106 104 100 102 102 99 95 89 88 85 88 88 84 75 75 82 84 69 66 67 66 57 52 51 42 36 26 21 16 10 10 1 1 8 6 10 10 9 11 12 7 8 4 6 7 5 5 1 3 355 350 344 340 336 332 328 323 320 318
158 157 156 154 153 151 152 152 151 150 151 153 150 140 139 138 136 138 131 130 123 120 121 118 114 112 109 106 104 100 97 94 91 91 92 94 87 81 79 83 82 75 71 74 71 69 67 61 55 46 42 34 27 21 13 7 5 1 357 5 8 9 10 13 10 8 10 12 6 9 7 7 3 359 356 354 349 344 341 336 331 327 323 319 316
157 158 155 155 154 152 152 152 153 155 153 156 151 138 144 141 141 138 133 129 125 122 121 119 116 114 110 106 103 101 99 98 96 94 90 88 89 89 86 78 76 78 74 73 70 58 57 62 54 50 42 33 28 20 14 5 0 359 356 1 12 8 10 17 6 9 14 10 11 7 8 11 3 360 356 349 346 341 339 335 329 327 323 320 318
161 156 155 154 157 156 153 155 156 155 153 157 148 148 147 143 144 141 133 128 126 126 125 122 120 116 113 107 104 103 100 97 95 95 97 93 88 86 84 78 72 68 71 73 71 69 63 61 58 51 41 33 27 20 12 6 1 1 355 355 11 6 14 19 5 12 11 13 10 8 10 12 2 359 352 347 343 340 336 331 329 325 324 322 317
160 159 160 160 160 156 156 157 155 154 153 156 152 151 146 150 146 139 133 129 129 128 124 120 118 114 112 111 108 106 102 100 100 98 92 95 94 88 81 75 70 67 66 68 69 74 73 65 59 52 45 34 26 20 15 6 1 358 349 349 12 10 10 12 12 13 13 15 10 8 6 5 359 353 351 343 342 339 334 329 328 325 324 321 317
166 165 163 162 157 156 156 156 155 156 157 162 159 153 148 152 143 135 132 132 132 128 125 123 120 117 113 114 115 109 110 110 107 103 100 94 89 87 87 86 82 74 63 63 68 71 71 69 61 54 45 37 29 19 12 358 356 356 345 341 13 6 6 11 14 10 7 14 8 7 1 1 350 348 336 331 341 345 336 328 327 327 324 320 317
168 166 164 162 159 159 160 159 161 160 157 156 155 155 155 150 141 137 135 133 133 129 126 124 121 120 122 120 117 117 113 112 110 106 103 100 97 93 88 82 76 71 70 70 70 67 70 66 57 51 48 40 29 19 356 349 347 355 342 342 352 12 7 13 10 6 7 9 4 1 356 356 334 352 345 354 353 341 332 326 326 325 323 318 315
165 163 163 164 162 162 161 162 161 159 160 155 157 155 148 143 140 139 135 135 133 130 128 127 125 126 124 122 118 118 117 112 108 107 110 105 98 94 87 81 76 72 72 73 72 74 69 64 60 52 46 43 31 11 351 351 346 346 347 331 339 10 11 9 12 3 4 6 1 360 354 351 353 353 351 5 348 336 330 329 322 311 303 303 312
167 165 166 165 163 163 161 162 159 158 158 158 156 151 147 143 142 139 138 137 134 132 131 128 127 129 127 124 122 121 117 114 114 109 104 104 103 97 92 86 85 80 77 76 71 68 71 70 65 58 49 42 33 10 354 350 350 345 342 333 323 17 2 8 13 357 7 9 1 359 355 352 359 353 358 358 345 337 335 330 317 308 310 309 306
169 169 165 163 163 163 162 162 157 159 161 161 155 150 147 144 143 140 138 136 136 135 132 132 133 129 124 124 122 119 115 113 108 106 105 105 103 101 96 92 85 82 80 72 69 66 64 68 75 65 52 42 30 12 354 355 350 348 338 332 332 22 357 3 10 357 10 6 5 359 357 359 357 357 5 354 346 340 338 330 324 333 332 330 322
171 168 164 163 162 161 164 165 161 161 161 156 158 146 141 141 140 140 140 140 140 137 135 133 130 127 127 125 122 118 113 112 112 111 111 105 102 99 101 101 100 93 85 79 73 67 65 65 68 74 64 48 31 7 0 358 351 349 339 332 348 10 6 5 12 1 7 11 8 0 355 359 0 360 4 352 344 341 339 336 342 341 336 332 330
168 165 165 165 163 163 164 164 163 160 155 157 152 141 140 142 143 142 144 142 141 138 136 135 131 129 128 125 124 121 117 115 113 111 108 106 104 109 106 99 96 90 86 83 79 74 64 59 64 74 74 58 40 15 7 359 355 349 342 317 13 354 7 5 13 358 4 9 12 1 357 2 358 3 358 348 339 339 339 340 344 341 338 337 332
168 164 164 164 166 164 163 161 155 153 159 160 149 143 143 144 145 144 144 143 140 139 136 135 133 133 130 127 123 122 121 120 119 117 113 110 106 103 102 102 101 95 90 89 83 76 70 60 56 60 72 66 54 28 10 4 356 352 339 325 18 359 4 5 10 4 8 356 24 5 5 5 358 357 351 342 335 330 337 344 343 343 341 337 334
168 166 163 165 164 161 162 158 159 158 159 157 148 146 144 144 145 145 145 142 142 139 137 138 137 134 131 131 131 129 126 122 120 118 116 113 114 110 107 107 103 100 98 91 87 81 73 66 53 43 53 70 61 37 21 7 359 354 347 347 14 6 358 358 12 359 356 9 58 17 26 16 3 354 342 334 330 331 338 344 346 346 343 340 338
167 163 166 166 162 160 156 156 158 159 157 150 148 145 145 146 146 146 144 144 143 141 141 141 138 136 134 132 131 130 129 127 123 118 114 115 114 109 103 99 99 101 97 97 98 94 91 81 67 51 24 52 72 54 31 13 0 356 347 345 4 9 358 351 360 0 356 5 84 83 41 27 10 353 334 328 329 333 334 338 349 346 343 344 340
169 163 164 163 160 158 157 158 158 158 155 150 145 144 147 146 147 146 146 145 145 143 144 142 139 137 134 133 133 130 129 126 121 119 120 119 115 114 121 119 114 110 102 97 89 89 91 88 88 81 41 29 59 73 47 18 5 357 353 348 358 9 359 356 344 2 349 2 354 66 70 36 11 340 329 326 326 328 326 321 343 342 337 335 333
160 165 164 160 156 159 161 161 161 158 154 148 145 148 147 147 147 147 148 147 145 145 141 139 138 136 134 130 127 127 127 128 126 125 121 115 114 112 109 105 105 101 99 100 100 89 80 76 74 91 81 52 38 58 64 29 8 355 354 343 357 3 355 347 339 341 360 346 352 350 1 32 359 336 324 320 320 320 317 308 336 343 332 318 315
165 167 157 159 162 164 164 162 161 155 153 148 149 149 149 149 149 151 150 146 145 143 141 140 138 135 134 132 130 129 128 127 126 126 126 123 118 117 115 109 97 87 95 99 109 116 106 101 84 61 71 74 42 25 93 48 11 350 343 350 356 4 352 341 330 332 349 344 345 353 340 8 344 324 317 314 313 314 309 297 333 337 318 298 307
169 150 161 160 162 163 165 161 158 156 152 151 152 150 150 150 153 152 148 145 144 143 142 140 141 140 136 134 131 129 131 127 127 130 131 123 127 133 136 129 110 111 109 97 83 85 83 80 101 100 58 75 118 32 27 87 30 339 331 331 341 354 348 333 327 326 340 349 342 342 342 351 331 315 309 307 307 312 305 294 332 308 294 301 317
159 155 162 162 164 166 164 160 157 156 154 153 153 152 151 153 154 149 147 147 144 144 144 144 141 136 136 135 133 137 136 136 137 136 132 130 131 127 128 132 144 137 131 133 112 92 86 70 71 55 63 50 108 135 47 31 31 336 335 322 304 297 317 314 335 322 339 342 336 339 342 336 312 307 303 298 303 307 303 334 317 301 299 295 322
150 161 164 167 164 165 162 158 158 155 155 154 154 153 153 157 151 149 149 146 146 148 147 142 138 138 139 138 143 146 144 143 146 147 143 141 141 150 153 128 153 151 124 113 94 93 68 66 43 51 50 53 36 68 121 61 8 357 334 327 313 300 283 320 318 320 346 332 336 333 319 309 300 299 301 290 304 316 326 322 314 305 310 319 344
161 169 166 171 170 162 159 158 156 154 155 154 157 155 155 155 149 151 149 150 151 148 145 143 144 143 144 146 151 149 153 154 153 155 147 145 162 178 145 157 138 103 92 89 95 83 58 49 44 28 41 39 39 38 14 48 18 359 344 349 335 330 296 296 309 338 339 329 307 301 296 287 283 304 314 328 340 333 331 337 333 329 327 350 346
166 167 166 168 160 155 157 155 154 155 154 155 157 156 158 151 151 152 152 153 151 148 146 149 148 147 153 153 155 157 158 156 169 164 166 156 166 176 150 139 135 115 105 97 61 52 50 50 28 31 21 31 43 32 19 11 5 3 356 353 342 359 356 330 304 335 317 299 308 303 300 314 327 333 336 350 336 329 329 352 342 341 344 348 352
173 168 167 164 157 156 156 154 153 154 154 156 156 158 158 151 154 154 155 154 151 149 150 152 146 154 161 160 157 164 158 162 182 168 161 157 162 138 147 183 154 137 122 95 81 40 42 24 45 25 9 19 31 37 22 9 6 356 356 350 354 354 350 337 346 352 335 333 315 292 335 313 316 323 335 332 345 338 349 352 354 349 346 349 350
170 164 166 158 159 157 154 153 153 155 155 157 157 160 157 155 156 158 154 150 147 150 157 153 154 158 166 161 168 140 161 167 181 177 160 160 152 169 141 84 48 26 4 88 87 60 22 24 2 32 7 11 16 31 26 7 356 350 344 344 348 349 351 349 341 342 330 322 308 335 343 348 348 351 352 350 347 357 356 353 353 351 346 346 344
167 164 161 158 159 156 154 154 154 155 156 157 158 161 158 157 159 154 151 149 148 155 159 156 159 163 168 168 167 168 193 166 169 178 173 135 114 167 135 115 60 36 26 11 8 47 41 6 350 34 17 7 9 20 22 14 326 322 310 323 335 332 333 323 316 315 317 312 305 342 345 348 354 359 348 355 354 349 354 355 355 352 345 351 350
162 158 159 159 158 154 154 153 153 155 157 159 161 163 157 158 155 153 154 152 154 161 167 163 168 169 170 178 170 176 201 171 167 176 160 104 66 69 34 55 107 80 67 52 30 41 15 353 340 38 50 2 359 9 48 316 305 304 306 299 288 291 292 295 295 304 308 301 319 349 340 352 349 359 351 351 352 353 349 356 1 350 347 353 348
162 162 161 160 157 154 152 151 154 157 159 160 163 160 153 157 157 157 157 156 159 168 172 170 177 178 170 186 172 175 189 182 171 173 163 147 151 110 91 90 99 130 142 159 104 125 2 330 333 339 96 157 130 165 229 265 293 295 296 295 293 293 295 296 301 316 320 303 323 347 342 348 349 355 349 356 353 350 351 350 354 350 356 355 350